owner,sensor,date,latitude,longitude,vertical_datum,direction_of_sea_water_velocity,sea_water_speed,upward_sea_water_velocity,qcFlag 
TABS,ioos:station:wmo:42047:1,2016-06-01T00:00:00Z,27.8966,-93.5973,2.0,57.56382164,32.70185927,-99999.0,'11111222,11111222,99999999' 
TABS,ioos:station:wmo:42047:1,2016-06-01T00:30:00Z,27.8966,-93.5973,2.0,63.0951831,37.70076922,-99999.0,'11111222,11111222,99999999' 
TABS,ioos:station:wmo:42047:1,2016-06-01T01:00:00Z,27.8966,-93.5973,2.0,69.16994824,37.68299882,-99999.0,'11111222,11111222,99999999' 
TABS,ioos:station:wmo:42047:1,2016-06-01T01:30:00Z,27.8966,-93.5973,2.0,72.78748866,37.20633951,-99999.0,'11111222,11111222,99999999' 
TABS,ioos:station:wmo:42047:1,2016-06-01T02:00:00Z,27.8966,-93.5973,2.0,75.28702315,35.31807611,-99999.0,'11111222,11111222,99999999' 
TABS,ioos:station:wmo:42047:1,2016-06-01T02:30:00Z,27.8966,-93.5973,2.0,79.75593651,35.42470325,-99999.0,'11111222,11111222,99999999' 
TABS,ioos:station:wmo:42047:1,2016-06-01T03:00:00Z,27.8966,-93.5973,2.0,80.52606451,32.3816692,-99999.0,'11111222,11111222,99999999' 
TABS,ioos:station:wmo:42047:1,2016-06-01T03:30:00Z,27.8966,-93.5973,2.0,78.1832312,36.13581188,-99999.0,'11111222,11111222,99999999' 
TABS,ioos:station:wmo:42047:1,2016-06-01T04:00:00Z,27.8966,-93.5973,2.0,80.41261183,36.14484749,-99999.0,'11111222,11111222,99999999' 
TABS,ioos:station:wmo:42047:1,2016-06-01T04:30:00Z,27.8966,-93.5973,2.0,83.78173554,38.40596308,-99999.0,'11111222,11111222,99999999' 
TABS,ioos:station:wmo:42047:1,2016-06-01T05:00:00Z,27.8966,-93.5973,2.0,93.76588664,36.38857238,-99999.0,'11111222,11111222,99999999' 
TABS,ioos:station:wmo:42047:1,2016-06-01T05:30:00Z,27.8966,-93.5973,2.0,104.3139106,39.03171659,-99999.0,'11111222,11111222,99999999' 
TABS,ioos:station:wmo:42047:1,2016-06-01T06:00:00Z,27.8966,-93.5973,2.0,111.0708905,35.68611635,-99999.0,'11111222,11111222,99999999' 
TABS,ioos:station:wmo:42047:1,2016-06-01T06:30:00Z,27.8966,-93.5973,2.0,94.83313545,38.33631307,-99999.0,'11111222,11111222,99999999' 
TABS,ioos:station:wmo:42047:1,2016-06-01T07:00:00Z,27.8966,-93.5973,2.0,92.35168243,38.99284037,-99999.0,'11111222,11111222,99999999' 
TABS,ioos:station:wmo:42047:1,2016-06-01T07:30:00Z,27.8966,-93.5973,2.0,99.26907293,39.48557331,-99999.0,'11111222,11111222,99999999' 
TABS,ioos:station:wmo:42047:1,2016-06-01T08:00:00Z,27.8966,-93.5973,2.0,97.20114004,37.33448808,-99999.0,'11111222,11111222,99999999' 
TABS,ioos:station:wmo:42047:1,2016-06-01T08:30:00Z,27.8966,-93.5973,2.0,101.0626316,37.2624127,-99999.0,'11111222,11111222,99999999' 
TABS,ioos:station:wmo:42047:1,2016-06-01T09:00:00Z,27.8966,-93.5973,2.0,95.48146187,32.34792265,-99999.0,'11111222,11111222,99999999' 
TABS,ioos:station:wmo:42047:1,2016-06-01T09:30:00Z,27.8966,-93.5973,2.0,92.12866522,27.99932142,-99999.0,'11111222,11111222,99999999' 
TABS,ioos:station:wmo:42047:1,2016-06-01T10:00:00Z,27.8966,-93.5973,2.0,107.4532785,25.47272267,-99999.0,'11111222,11111222,99999999' 
TABS,ioos:station:wmo:42047:1,2016-06-01T10:30:00Z,27.8966,-93.5973,2.0,100.9618201,20.98285252,-99999.0,'11111222,11111222,99999999' 
TABS,ioos:station:wmo:42047:1,2016-06-01T11:00:00Z,27.8966,-93.5973,2.0,108.3249334,16.47549696,-99999.0,'11111222,11111222,99999999' 
TABS,ioos:station:wmo:42047:1,2016-06-01T11:30:00Z,27.8966,-93.5973,2.0,122.5632315,16.21979655,-99999.0,'11111222,11111222,99999999' 
TABS,ioos:station:wmo:42047:1,2016-06-01T12:00:00Z,27.8966,-93.5973,2.0,122.2286821,10.33187785,-99999.0,'11111222,11111222,99999999' 
TABS,ioos:station:wmo:42047:1,2016-06-01T12:30:00Z,27.8966,-93.5973,2.0,117.6581854,9.844963179,-99999.0,'11133222,11111222,99999999' 
TABS,ioos:station:wmo:42047:1,2016-06-01T13:00:00Z,27.8966,-93.5973,2.0,132.52928,5.57718567,-99999.0,'11133222,11111222,99999999' 
TABS,ioos:station:wmo:42047:1,2016-06-01T13:30:00Z,27.8966,-93.5973,2.0,48.01288569,3.228869771,-99999.0,'11133222,11111222,99999999' 
TABS,ioos:station:wmo:42047:1,2016-06-01T14:00:00Z,27.8966,-93.5973,2.0,79.6283216,3.832623123,-99999.0,'11133222,11111222,99999999' 
TABS,ioos:station:wmo:42047:1,2016-06-01T14:30:00Z,27.8966,-93.5973,2.0,6.144353275,3.550394344,-99999.0,'11133222,11111222,99999999' 
TABS,ioos:station:wmo:42047:1,2016-06-01T15:00:00Z,27.8966,-93.5973,2.0,25.62085132,8.140393111,-99999.0,'11133222,11111222,99999999' 
TABS,ioos:station:wmo:42047:1,2016-06-01T15:30:00Z,27.8966,-93.5973,2.0,38.06915757,8.027758093,-99999.0,'11133222,11111222,99999999' 
TABS,ioos:station:wmo:42047:1,2016-06-01T16:00:00Z,27.8966,-93.5973,2.0,11.41796698,8.33495051,-99999.0,'11133222,11111222,99999999' 
TABS,ioos:station:wmo:42047:1,2016-06-01T16:30:00Z,27.8966,-93.5973,2.0,8.959092584,10.85239605,-99999.0,'11111222,11111222,99999999' 
TABS,ioos:station:wmo:42047:1,2016-06-01T17:00:00Z,27.8966,-93.5973,2.0,56.67130323,5.278077301,-99999.0,'11133222,11111222,99999999' 
TABS,ioos:station:wmo:42047:1,2016-06-01T17:30:00Z,27.8966,-93.5973,2.0,21.84760804,9.243916919,-99999.0,'11133222,11111222,99999999' 
TABS,ioos:station:wmo:42047:1,2016-06-01T18:00:00Z,27.8966,-93.5973,2.0,21.29186096,14.40310036,-99999.0,'11111222,11111222,99999999' 
TABS,ioos:station:wmo:42047:1,2016-06-01T18:30:00Z,27.8966,-93.5973,2.0,25.23744546,16.01901995,-99999.0,'11111222,11111222,99999999' 
TABS,ioos:station:wmo:42047:1,2016-06-01T19:00:00Z,27.8966,-93.5973,2.0,35.2050221,13.00949269,-99999.0,'11111222,11111222,99999999' 
TABS,ioos:station:wmo:42047:1,2016-06-01T19:30:00Z,27.8966,-93.5973,2.0,31.55631326,16.0891423,-99999.0,'11111222,11111222,99999999' 
TABS,ioos:station:wmo:42047:1,2016-06-01T20:00:00Z,27.8966,-93.5973,2.0,31.35498507,17.08508706,-99999.0,'11111222,11111222,99999999' 
TABS,ioos:station:wmo:42047:1,2016-06-01T20:30:00Z,27.8966,-93.5973,2.0,38.64993081,17.90063686,-99999.0,'11111222,11111222,99999999' 
TABS,ioos:station:wmo:42047:1,2016-06-01T21:00:00Z,27.8966,-93.5973,2.0,38.48823999,20.32610637,-99999.0,'11111222,11111222,99999999' 
TABS,ioos:station:wmo:42047:1,2016-06-01T21:30:00Z,27.8966,-93.5973,2.0,33.23883487,16.54722031,-99999.0,'11111222,11111222,99999999' 
TABS,ioos:station:wmo:42047:1,2016-06-01T22:00:00Z,27.8966,-93.5973,2.0,38.41983733,18.63481688,-99999.0,'11111222,11111222,99999999' 
TABS,ioos:station:wmo:42047:1,2016-06-01T22:30:00Z,27.8966,-93.5973,2.0,34.91058738,17.84043161,-99999.0,'11111222,11111222,99999999' 
TABS,ioos:station:wmo:42047:1,2016-06-01T23:00:00Z,27.8966,-93.5973,2.0,28.94352393,21.01478051,-99999.0,'11111222,11111222,99999999' 
TABS,ioos:station:wmo:42047:1,2016-06-01T23:30:00Z,27.8966,-93.5973,2.0,26.79112755,28.35356239,-99999.0,'11111222,11111222,99999999' 
TABS,ioos:station:wmo:42047:1,2016-06-02T00:00:00Z,27.8966,-93.5973,2.0,33.93637567,34.85768208,-99999.0,'11111222,11111222,99999999' 
TABS,ioos:station:wmo:42047:1,2016-06-02T00:30:00Z,27.8966,-93.5973,2.0,44.45508447,36.42471826,-99999.0,'11111222,11111222,99999999' 
TABS,ioos:station:wmo:42047:1,2016-06-02T01:00:00Z,27.8966,-93.5973,2.0,51.27452508,42.18412261,-99999.0,'11111222,11111222,99999999' 
TABS,ioos:station:wmo:42047:1,2016-06-02T01:30:00Z,27.8966,-93.5973,2.0,52.72764968,42.70105385,-99999.0,'11111222,11111222,99999999' 
TABS,ioos:station:wmo:42047:1,2016-06-02T02:00:00Z,27.8966,-93.5973,2.0,60.90117331,47.74648469,-99999.0,'11111222,11111222,99999999' 
TABS,ioos:station:wmo:42047:1,2016-06-02T02:30:00Z,27.8966,-93.5973,2.0,67.49059541,52.29394324,-99999.0,'11111222,11111222,99999999' 
TABS,ioos:station:wmo:42047:1,2016-06-02T03:00:00Z,27.8966,-93.5973,2.0,74.3503277,53.23342183,-99999.0,'11111222,11111222,99999999' 
TABS,ioos:station:wmo:42047:1,2016-06-02T03:30:00Z,27.8966,-93.5973,2.0,80.44994637,50.44917641,-99999.0,'11111222,11111222,99999999' 
TABS,ioos:station:wmo:42047:1,2016-06-02T04:00:00Z,27.8966,-93.5973,2.0,91.04141847,50.61836129,-99999.0,'11111222,11111222,99999999' 
TABS,ioos:station:wmo:42047:1,2016-06-02T04:30:00Z,27.8966,-93.5973,2.0,85.80077005,46.70538299,-99999.0,'11111222,11111222,99999999' 
TABS,ioos:station:wmo:42047:1,2016-06-02T05:00:00Z,27.8966,-93.5973,2.0,94.4224239,46.29784552,-99999.0,'11111222,11111222,99999999' 
TABS,ioos:station:wmo:42047:1,2016-06-02T05:30:00Z,27.8966,-93.5973,2.0,99.4370768,48.54702566,-99999.0,'11111222,11111222,99999999' 
TABS,ioos:station:wmo:42047:1,2016-06-02T06:00:00Z,27.8966,-93.5973,2.0,100.378271,45.35196798,-99999.0,'11111222,11111222,99999999' 
TABS,ioos:station:wmo:42047:1,2016-06-02T06:30:00Z,27.8966,-93.5973,2.0,103.471451,45.02892626,-99999.0,'11111222,11111222,99999999' 
TABS,ioos:station:wmo:42047:1,2016-06-02T07:00:00Z,27.8966,-93.5973,2.0,100.2854055,42.22859339,-99999.0,'11111222,11111222,99999999' 
TABS,ioos:station:wmo:42047:1,2016-06-02T07:30:00Z,27.8966,-93.5973,2.0,109.0108276,43.10085962,-99999.0,'11111222,11111222,99999999' 
TABS,ioos:station:wmo:42047:1,2016-06-02T08:00:00Z,27.8966,-93.5973,2.0,104.9804028,39.15056577,-99999.0,'11111222,11111222,99999999' 
TABS,ioos:station:wmo:42047:1,2016-06-02T08:30:00Z,27.8966,-93.5973,2.0,108.3366285,36.87221176,-99999.0,'11111222,11111222,99999999' 
TABS,ioos:station:wmo:42047:1,2016-06-02T09:00:00Z,27.8966,-93.5973,2.0,106.5822573,37.07178577,-99999.0,'11111222,11111222,99999999' 
TABS,ioos:station:wmo:42047:1,2016-06-02T09:30:00Z,27.8966,-93.5973,2.0,110.7286172,32.63239035,-99999.0,'11111222,11111222,99999999' 
TABS,ioos:station:wmo:42047:1,2016-06-02T10:00:00Z,27.8966,-93.5973,2.0,103.6849291,30.85596215,-99999.0,'11111222,11111222,99999999' 
TABS,ioos:station:wmo:42047:1,2016-06-02T10:30:00Z,27.8966,-93.5973,2.0,101.9032713,28.21674148,-99999.0,'11111222,11111222,99999999' 
TABS,ioos:station:wmo:42047:1,2016-06-02T11:00:00Z,27.8966,-93.5973,2.0,98.93330476,29.55855375,-99999.0,'11111222,11111222,99999999' 
TABS,ioos:station:wmo:42047:1,2016-06-02T11:30:00Z,27.8966,-93.5973,2.0,102.8675156,25.68501509,-99999.0,'11111222,11111222,99999999' 
TABS,ioos:station:wmo:42047:1,2016-06-02T12:00:00Z,27.8966,-93.5973,2.0,98.33288736,24.77151994,-99999.0,'11111222,11111222,99999999' 
TABS,ioos:station:wmo:42047:1,2016-06-02T12:30:00Z,27.8966,-93.5973,2.0,79.17829825,19.33383045,-99999.0,'11111222,11111222,99999999' 
TABS,ioos:station:wmo:42047:1,2016-06-02T13:00:00Z,27.8966,-93.5973,2.0,83.73954158,23.01726526,-99999.0,'11111222,11111222,99999999' 
TABS,ioos:station:wmo:42047:1,2016-06-02T13:30:00Z,27.8966,-93.5973,2.0,79.70199746,22.54314308,-99999.0,'11111222,11111222,99999999' 
TABS,ioos:station:wmo:42047:1,2016-06-02T14:00:00Z,27.8966,-93.5973,2.0,75.79274261,26.81000746,-99999.0,'11111222,11111222,99999999' 
TABS,ioos:station:wmo:42047:1,2016-06-02T14:30:00Z,27.8966,-93.5973,2.0,69.14559073,25.61831376,-99999.0,'11111222,11111222,99999999' 
TABS,ioos:station:wmo:42047:1,2016-06-02T15:00:00Z,27.8966,-93.5973,2.0,64.14399571,30.35918312,-99999.0,'11111222,11111222,99999999' 
TABS,ioos:station:wmo:42047:1,2016-06-02T15:30:00Z,27.8966,-93.5973,2.0,61.64567184,28.2150474,-99999.0,'11111222,11111222,99999999' 
TABS,ioos:station:wmo:42047:1,2016-06-02T16:00:00Z,27.8966,-93.5973,2.0,63.07120434,27.46841277,-99999.0,'11111222,11111222,99999999' 
TABS,ioos:station:wmo:42047:1,2016-06-02T16:30:00Z,27.8966,-93.5973,2.0,55.82253016,31.29454425,-99999.0,'11111222,11111222,99999999' 
TABS,ioos:station:wmo:42047:1,2016-06-02T17:00:00Z,27.8966,-93.5973,2.0,55.31869673,31.58103545,-99999.0,'11111222,11111222,99999999' 
TABS,ioos:station:wmo:42047:1,2016-06-02T17:30:00Z,27.8966,-93.5973,2.0,57.7330017,32.72353587,-99999.0,'11111222,11111222,99999999' 
TABS,ioos:station:wmo:42047:1,2016-06-02T18:00:00Z,27.8966,-93.5973,2.0,59.13683445,33.23647695,-99999.0,'11111222,11111222,99999999' 
TABS,ioos:station:wmo:42047:1,2016-06-02T18:30:00Z,27.8966,-93.5973,2.0,55.94010829,35.65687171,-99999.0,'11111222,11111222,99999999' 
TABS,ioos:station:wmo:42047:1,2016-06-02T19:00:00Z,27.8966,-93.5973,2.0,64.00780688,36.23505623,-99999.0,'11111222,11111222,99999999' 
TABS,ioos:station:wmo:42047:1,2016-06-02T19:30:00Z,27.8966,-93.5973,2.0,60.45629348,39.93198843,-99999.0,'11111222,11111222,99999999' 
TABS,ioos:station:wmo:42047:1,2016-06-02T20:00:00Z,27.8966,-93.5973,2.0,62.34036703,36.98684226,-99999.0,'11111222,11111222,99999999' 
TABS,ioos:station:wmo:42047:1,2016-06-02T20:30:00Z,27.8966,-93.5973,2.0,63.72503142,39.75779798,-99999.0,'11111222,11111222,99999999' 
TABS,ioos:station:wmo:42047:1,2016-06-02T21:00:00Z,27.8966,-93.5973,2.0,62.60681525,42.07825091,-99999.0,'11111222,11111222,99999999' 
TABS,ioos:station:wmo:42047:1,2016-06-02T21:30:00Z,27.8966,-93.5973,2.0,71.03750865,40.86784677,-99999.0,'11111222,11111222,99999999' 
TABS,ioos:station:wmo:42047:1,2016-06-02T22:00:00Z,27.8966,-93.5973,2.0,38.51487146,46.26506349,-99999.0,'11111222,11111222,99999999' 
TABS,ioos:station:wmo:42047:1,2016-06-02T22:30:00Z,27.8966,-93.5973,2.0,47.69039798,51.37135875,-99999.0,'11111222,11111222,99999999' 
TABS,ioos:station:wmo:42047:1,2016-06-02T23:00:00Z,27.8966,-93.5973,2.0,55.51639471,53.46436009,-99999.0,'11111222,11111222,99999999' 
TABS,ioos:station:wmo:42047:1,2016-06-02T23:30:00Z,27.8966,-93.5973,2.0,66.38343784,53.99201608,-99999.0,'11111222,11111222,99999999' 
TABS,ioos:station:wmo:42047:1,2016-06-03T00:00:00Z,27.8966,-93.5973,2.0,110.1986953,47.67178621,-99999.0,'11111222,11111222,99999999' 
TABS,ioos:station:wmo:42047:1,2016-06-03T00:30:00Z,27.8966,-93.5973,2.0,118.2407423,47.2549098,-99999.0,'11111222,11111222,99999999' 
TABS,ioos:station:wmo:42047:1,2016-06-03T01:00:00Z,27.8966,-93.5973,2.0,136.2375711,45.83121207,-99999.0,'11111222,11111222,99999999' 
TABS,ioos:station:wmo:42047:1,2016-06-03T01:30:00Z,27.8966,-93.5973,2.0,133.1546563,44.13928069,-99999.0,'11111222,11111222,99999999' 
TABS,ioos:station:wmo:42047:1,2016-06-03T02:00:00Z,27.8966,-93.5973,2.0,155.8508795,42.11576664,-99999.0,'11111222,11111222,99999999' 
TABS,ioos:station:wmo:42047:1,2016-06-03T02:30:00Z,27.8966,-93.5973,2.0,154.6885454,39.85627303,-99999.0,'11111222,11111222,99999999' 
TABS,ioos:station:wmo:42047:1,2016-06-03T03:00:00Z,27.8966,-93.5973,2.0,158.2014039,35.78906258,-99999.0,'11111222,11111222,99999999' 
TABS,ioos:station:wmo:42047:1,2016-06-03T03:30:00Z,27.8966,-93.5973,2.0,159.9379955,34.19484318,-99999.0,'11111222,11111222,99999999' 
TABS,ioos:station:wmo:42047:1,2016-06-03T04:00:00Z,27.8966,-93.5973,2.0,166.4701715,28.25407935,-99999.0,'11111222,11111222,99999999' 
TABS,ioos:station:wmo:42047:1,2016-06-03T04:30:00Z,27.8966,-93.5973,2.0,171.4690439,23.25731068,-99999.0,'11111222,11111222,99999999' 
TABS,ioos:station:wmo:42047:1,2016-06-03T05:00:00Z,27.8966,-93.5973,2.0,186.9833063,14.06434143,-99999.0,'11111222,11111222,99999999' 
TABS,ioos:station:wmo:42047:1,2016-06-03T05:30:00Z,27.8966,-93.5973,2.0,188.0061912,10.48217535,-99999.0,'11111222,11111222,99999999' 
TABS,ioos:station:wmo:42047:1,2016-06-03T06:00:00Z,27.8966,-93.5973,2.0,244.4994422,6.016061835,-99999.0,'11133222,11111222,99999999' 
TABS,ioos:station:wmo:42047:1,2016-06-03T06:30:00Z,27.8966,-93.5973,2.0,258.7071359,6.434570693,-99999.0,'11133222,11111222,99999999' 
TABS,ioos:station:wmo:42047:1,2016-06-03T07:00:00Z,27.8966,-93.5973,2.0,290.995943,6.86583571,-99999.0,'11133222,11111222,99999999' 
TABS,ioos:station:wmo:42047:1,2016-06-03T07:30:00Z,27.8966,-93.5973,2.0,289.0115816,10.37595779,-99999.0,'11111222,11111222,99999999' 
TABS,ioos:station:wmo:42047:1,2016-06-03T08:00:00Z,27.8966,-93.5973,2.0,285.3981331,10.92203736,-99999.0,'11111222,11111222,99999999' 
TABS,ioos:station:wmo:42047:1,2016-06-03T08:30:00Z,27.8966,-93.5973,2.0,303.2375944,11.93197385,-99999.0,'11111222,11111222,99999999' 
TABS,ioos:station:wmo:42047:1,2016-06-03T09:00:00Z,27.8966,-93.5973,2.0,308.7788177,13.57152902,-99999.0,'11111222,11111222,99999999' 
TABS,ioos:station:wmo:42047:1,2016-06-03T09:30:00Z,27.8966,-93.5973,2.0,325.1218987,18.58922806,-99999.0,'11111222,11111222,99999999' 
TABS,ioos:station:wmo:42047:1,2016-06-03T10:00:00Z,27.8966,-93.5973,2.0,344.779293,19.12074528,-99999.0,'11111222,11111222,99999999' 
TABS,ioos:station:wmo:42047:1,2016-06-03T10:30:00Z,27.8966,-93.5973,2.0,347.1684614,27.69156009,-99999.0,'11111222,11111222,99999999' 
TABS,ioos:station:wmo:42047:1,2016-06-03T11:00:00Z,27.8966,-93.5973,2.0,355.6881792,32.45185973,-99999.0,'11111222,11111222,99999999' 
TABS,ioos:station:wmo:42047:1,2016-06-03T11:30:00Z,27.8966,-93.5973,2.0,352.9142976,38.18162123,-99999.0,'11111222,11111222,99999999' 
TABS,ioos:station:wmo:42047:1,2016-06-03T12:00:00Z,27.8966,-93.5973,2.0,359.5317481,40.36134909,-99999.0,'11111222,11144222,99999999' 
TABS,ioos:station:wmo:42047:1,2016-06-03T12:30:00Z,27.8966,-93.5973,2.0,3.466618695,47.79744972,-99999.0,'11111222,11111222,99999999' 
TABS,ioos:station:wmo:42047:1,2016-06-03T13:00:00Z,27.8966,-93.5973,2.0,16.47212254,59.63760726,-99999.0,'11111222,11111222,99999999' 
TABS,ioos:station:wmo:42047:1,2016-06-03T13:30:00Z,27.8966,-93.5973,2.0,15.15698165,54.69254154,-99999.0,'11111222,11111222,99999999' 
TABS,ioos:station:wmo:42047:1,2016-06-03T14:00:00Z,27.8966,-93.5973,2.0,13.36951778,57.30292314,-99999.0,'11111222,11111222,99999999' 
TABS,ioos:station:wmo:42047:1,2016-06-03T14:30:00Z,27.8966,-93.5973,2.0,17.66558701,60.04125665,-99999.0,'11111222,11111222,99999999' 
TABS,ioos:station:wmo:42047:1,2016-06-03T15:00:00Z,27.8966,-93.5973,2.0,21.57932803,64.62989169,-99999.0,'11111222,11111222,99999999' 
TABS,ioos:station:wmo:42047:1,2016-06-03T15:30:00Z,27.8966,-93.5973,2.0,26.9001624,62.72725086,-99999.0,'11111222,11111222,99999999' 
TABS,ioos:station:wmo:42047:1,2016-06-03T16:00:00Z,27.8966,-93.5973,2.0,29.40398072,62.30623163,-99999.0,'11111222,11111222,99999999' 
TABS,ioos:station:wmo:42047:1,2016-06-03T16:30:00Z,27.8966,-93.5973,2.0,31.76105287,64.59261877,-99999.0,'11111222,11111222,99999999' 
TABS,ioos:station:wmo:42047:1,2016-06-03T17:00:00Z,27.8966,-93.5973,2.0,36.53273794,63.53310082,-99999.0,'11111222,11111222,99999999' 
TABS,ioos:station:wmo:42047:1,2016-06-03T17:30:00Z,27.8966,-93.5973,2.0,38.73369204,61.86672531,-99999.0,'11111222,11111222,99999999' 
TABS,ioos:station:wmo:42047:1,2016-06-03T18:00:00Z,27.8966,-93.5973,2.0,39.21067142,59.30347882,-99999.0,'11111222,11111222,99999999' 
TABS,ioos:station:wmo:42047:1,2016-06-03T18:30:00Z,27.8966,-93.5973,2.0,45.05994747,60.93142457,-99999.0,'11111222,11111222,99999999' 
TABS,ioos:station:wmo:42047:1,2016-06-03T19:00:00Z,27.8966,-93.5973,2.0,49.96751117,60.43004054,-99999.0,'11111222,11111222,99999999' 
TABS,ioos:station:wmo:42047:1,2016-06-03T19:30:00Z,27.8966,-93.5973,2.0,56.83023587,59.56616237,-99999.0,'11111222,11111222,99999999' 
TABS,ioos:station:wmo:42047:1,2016-06-03T20:00:00Z,27.8966,-93.5973,2.0,60.60890755,56.05484546,-99999.0,'11111222,11111222,99999999' 
TABS,ioos:station:wmo:42047:1,2016-06-03T20:30:00Z,27.8966,-93.5973,2.0,67.88371737,55.406755,-99999.0,'11111222,11111222,99999999' 
TABS,ioos:station:wmo:42047:1,2016-06-03T21:00:00Z,27.8966,-93.5973,2.0,123.3513199,53.02194451,-99999.0,'11111222,11111222,99999999' 
TABS,ioos:station:wmo:42047:1,2016-06-03T21:30:00Z,27.8966,-93.5973,2.0,128.0401802,55.02948028,-99999.0,'11111222,11111222,99999999' 
TABS,ioos:station:wmo:42047:1,2016-06-03T22:00:00Z,27.8966,-93.5973,2.0,130.3203899,55.99150828,-99999.0,'11111222,11111222,99999999' 
TABS,ioos:station:wmo:42047:1,2016-06-03T22:30:00Z,27.8966,-93.5973,2.0,113.3654009,56.80865603,-99999.0,'11111222,11111222,99999999' 
TABS,ioos:station:wmo:42047:1,2016-06-03T23:00:00Z,27.8966,-93.5973,2.0,127.931731,50.39665564,-99999.0,'11111222,11111222,99999999' 
TABS,ioos:station:wmo:42047:1,2016-06-03T23:30:00Z,27.8966,-93.5973,2.0,113.2190524,51.33819241,-99999.0,'11111222,11111222,99999999' 
TABS,ioos:station:wmo:42047:1,2016-06-04T00:00:00Z,27.8966,-93.5973,2.0,115.7707092,49.3592352,-99999.0,'11111222,11111222,99999999' 
TABS,ioos:station:wmo:42047:1,2016-06-04T00:30:00Z,27.8966,-93.5973,2.0,114.7853167,50.83245617,-99999.0,'11111222,11111222,99999999' 
TABS,ioos:station:wmo:42047:1,2016-06-04T01:00:00Z,27.8966,-93.5973,2.0,113.4833531,51.24428163,-99999.0,'11111222,11111222,99999999' 
TABS,ioos:station:wmo:42047:1,2016-06-04T01:30:00Z,27.8966,-93.5973,2.0,113.9740543,50.05859766,-99999.0,'11111222,11111222,99999999' 
TABS,ioos:station:wmo:42047:1,2016-06-04T02:00:00Z,27.8966,-93.5973,2.0,117.3162275,49.11721898,-99999.0,'11111222,11111222,99999999' 
TABS,ioos:station:wmo:42047:1,2016-06-04T02:30:00Z,27.8966,-93.5973,2.0,139.5212917,50.141421,-99999.0,'11111222,11111222,99999999' 
TABS,ioos:station:wmo:42047:1,2016-06-04T03:00:00Z,27.8966,-93.5973,2.0,140.4768028,49.34089176,-99999.0,'11111222,11111222,99999999' 
TABS,ioos:station:wmo:42047:1,2016-06-04T03:30:00Z,27.8966,-93.5973,2.0,144.785738,47.75994137,-99999.0,'11111222,11111222,99999999' 
TABS,ioos:station:wmo:42047:1,2016-06-04T04:00:00Z,27.8966,-93.5973,2.0,143.9102637,46.70233078,-99999.0,'11111222,11111222,99999999' 
TABS,ioos:station:wmo:42047:1,2016-06-04T04:30:00Z,27.8966,-93.5973,2.0,146.3133363,44.94735699,-99999.0,'11111222,11111222,99999999' 
TABS,ioos:station:wmo:42047:1,2016-06-04T05:00:00Z,27.8966,-93.5973,2.0,155.5029957,42.13260614,-99999.0,'11111222,11111222,99999999' 
TABS,ioos:station:wmo:42047:1,2016-06-04T05:30:00Z,27.8966,-93.5973,2.0,157.3732975,39.58692335,-99999.0,'11111222,11111222,99999999' 
TABS,ioos:station:wmo:42047:1,2016-06-04T06:00:00Z,27.8966,-93.5973,2.0,164.0133621,34.49399368,-99999.0,'11111222,11111222,99999999' 
TABS,ioos:station:wmo:42047:1,2016-06-04T06:30:00Z,27.8966,-93.5973,2.0,170.6770007,32.40806844,-99999.0,'11111222,11111222,99999999' 
TABS,ioos:station:wmo:42047:1,2016-06-04T07:00:00Z,27.8966,-93.5973,2.0,184.5186763,24.49614868,-99999.0,'11111222,11111222,99999999' 
TABS,ioos:station:wmo:42047:1,2016-06-04T07:30:00Z,27.8966,-93.5973,2.0,207.004218,24.49013679,-99999.0,'11111222,11111222,99999999' 
TABS,ioos:station:wmo:42047:1,2016-06-04T08:00:00Z,27.8966,-93.5973,2.0,217.6891361,25.72863191,-99999.0,'11111222,11111222,99999999' 
TABS,ioos:station:wmo:42047:1,2016-06-04T08:30:00Z,27.8966,-93.5973,2.0,207.2778731,22.99750421,-99999.0,'11111222,11111222,99999999' 
TABS,ioos:station:wmo:42047:1,2016-06-04T09:00:00Z,27.8966,-93.5973,2.0,233.4127068,20.25024691,-99999.0,'11111222,11111222,99999999' 
TABS,ioos:station:wmo:42047:1,2016-06-04T09:30:00Z,27.8966,-93.5973,2.0,235.211506,15.19602909,-99999.0,'11111222,11111222,99999999' 
TABS,ioos:station:wmo:42047:1,2016-06-04T10:00:00Z,27.8966,-93.5973,2.0,246.1387266,13.74476264,-99999.0,'11111222,11111222,99999999' 
TABS,ioos:station:wmo:42047:1,2016-06-04T10:30:00Z,27.8966,-93.5973,2.0,269.7706267,10.01007992,-99999.0,'11111222,11111222,99999999' 
TABS,ioos:station:wmo:42047:1,2016-06-04T11:00:00Z,27.8966,-93.5973,2.0,305.6603114,10.89242856,-99999.0,'11111222,11111222,99999999' 
TABS,ioos:station:wmo:42047:1,2016-06-04T11:30:00Z,27.8966,-93.5973,2.0,334.1953474,14.49546826,-99999.0,'11111222,11111222,99999999' 
TABS,ioos:station:wmo:42047:1,2016-06-04T12:00:00Z,27.8966,-93.5973,2.0,348.3951761,16.75246251,-99999.0,'11111222,11111222,99999999' 
TABS,ioos:station:wmo:42047:1,2016-06-04T12:30:00Z,27.8966,-93.5973,2.0,1.379620947,22.01638027,-99999.0,'11111222,11111222,99999999' 
TABS,ioos:station:wmo:42047:1,2016-06-04T13:00:00Z,27.8966,-93.5973,2.0,5.822515952,26.02425215,-99999.0,'11111222,11111222,99999999' 
TABS,ioos:station:wmo:42047:1,2016-06-04T13:30:00Z,27.8966,-93.5973,2.0,11.40964559,30.48237688,-99999.0,'11111222,11111222,99999999' 
TABS,ioos:station:wmo:42047:1,2016-06-04T14:00:00Z,27.8966,-93.5973,2.0,21.85147294,36.24402985,-99999.0,'11111222,11111222,99999999' 
TABS,ioos:station:wmo:42047:1,2016-06-04T14:30:00Z,27.8966,-93.5973,2.0,25.36392243,35.62392033,-99999.0,'11111222,11111222,99999999' 
TABS,ioos:station:wmo:42047:1,2016-06-04T15:00:00Z,27.8966,-93.5973,2.0,32.7766255,40.8782803,-99999.0,'11111222,11111222,99999999' 
TABS,ioos:station:wmo:42047:1,2016-06-04T15:30:00Z,27.8966,-93.5973,2.0,7.960557362,51.55679587,-99999.0,'11111222,11111222,99999999' 
TABS,ioos:station:wmo:42047:1,2016-06-04T16:00:00Z,27.8966,-93.5973,2.0,21.79115694,61.31103082,-99999.0,'11111222,11111222,99999999' 